[[{"header":{"parameterUnit":"m.s-1","parameterCategory":1,"la1":30.2991,"la2":30.254,"lo1":-89.0895,"lo2":-89.0444,"dy":0.0017,"dx":0.0017,"nx":28,"ny":28,"refTime":"2023-08-11T03:00:00:Z","depth":0,"parameterNumber":2,"parameterNumberName":"U-component_of_WINDS"},"data":[0,0,0,0,0,0,0,0,0,0,0,0,0,0,0,0,0,0,0,0,0,0,0,0,0,0,0,0,0,0,0,0,0,0,0,0,0,0,0,0,0,0,0,0,0,0,0,0,0,0,0,0,0,0,0,0,0,0,4.7755,4.7756,0,4.7797,4.7797,4.7798,4.7672,4.7668,4.7664,4.7661,4.7705,4.771,4.7714,0,0,0,0,0,0,0,0,0,0,0,0,0,4.7568,4.7572,4.7755,4.7756,4.7756,4.7797,4.7797,4.7798,4.7673,4.7668,4.7663,4.7659,4.7703,4.7709,4.7715,0,0,0,0,0,0,0,0,0,0,0,0,0,4.7634,4.7573,4.7755,4.7699,4.7694,4.7796,4.7797,4.7798,4.7674,4.7668,4.7662,4.7657,4.7702,4.7709,4.7716,4.7875,0,0,4.7737,4.774,0,0,0,0,0,0,0,0,4.763,4.764,4.7707,4.7703,4.7698,4.7723,4.7747,4.7824,4.7675,4.7682,4.7661,4.7654,4.7716,4.7721,4.7742,4.7877,4.7879,4.7738,4.7742,4.7745,4.7747,0,0,0,0,0,0,0,4.7626,4.7638,4.7772,4.7708,4.7702,4.7671,4.7674,4.7761,4.7731,4.7681,4.7672,4.7678,4.7712,4.7735,4.7742,4.788,4.7738,4.7744,4.7749,4.7751,4.8143,4.8149,0,0,0,0,0,0,4.7628,4.7635,4.777,4.7773,4.7649,4.7679,4.7683,4.7721,4.7729,4.7725,4.7683,4.7672,4.7726,4.7734,4.7743,4.7927,4.7745,4.7752,4.7756,4.8137,4.8144,4.8151,0,0,0,0,0,0,4.7625,4.7642,4.7769,4.7702,4.7715,4.7689,4.7733,4.7725,4.7747,4.7731,4.7725,4.7712,4.7722,4.7733,4.7842,4.7927,4.7755,4.7762,4.813,4.8139,4.8148,4.8298,0,0,0,0,0,0,4.762,4.7641,4.7702,4.7704,4.7719,4.7867,4.7738,4.773,4.776,4.7746,4.7757,4.7753,4.7718,4.7832,4.7849,4.7933,4.7767,4.8122,4.8134,4.8145,4.8285,4.8311,4.8333,0,0,0,0,0,4.7614,4.7744,4.7705,4.7722,4.7794,4.7873,4.7881,4.7838,4.7767,4.7827,4.7816,4.7753,4.7915,4.7844,4.7862,4.795,4.8116,4.813,4.8144,4.8274,4.8306,4.8332,0,0,0,0,0,0,4.7753,4.7743,4.77,4.7835,4.7855,4.7851,4.7926,4.7874,4.7915,4.7901,4.7846,4.7849,4.7967,4.797,4.7891,4.8103,4.8003,4.8022,4.8096,4.8126,4.815,4.8145,4.7773,0,0,0,0,0,4.78,4.7864,4.7851,4.7971,4.7983,4.7953,4.7986,4.795,4.797,4.7978,4.7975,4.7996,4.8051,4.8089,4.814,4.8285,4.8284,4.8354,4.8378,4.8398,4.8414,4.8487,4.8517,4.8196,4.8196,4.8196,0,0,4.7896,4.7898,4.7942,4.7999,4.8011,4.8077,4.7961,4.8038,4.8086,4.799,4.8091,4.809,4.811,4.8237,4.8293,4.8242,4.8502,4.8416,4.8432,4.8436,4.8504,4.8535,4.8562,4.8205,4.8204,4.8202,0,0,4.8105,4.8115,4.8213,4.8227,4.8245,4.8224,4.8248,4.8252,4.8246,4.8347,4.8275,4.8332,4.843,4.8446,4.8467,4.868,4.8621,4.8698,4.8822,4.8895,4.892,4.8942,4.9014,4.9042,4.8714,4.8714,4.8715,0,4.8223,4.832,4.8271,4.8351,4.8377,4.8292,4.839,4.8406,4.8441,4.8461,4.8404,4.8522,4.853,4.8657,4.8709,4.873,4.8754,4.8695,4.892,4.8942,4.8962,4.903,4.9058,4.8723,4.8722,4.8721,4.8721,0,4.8462,4.8531,4.8608,4.8641,4.8677,4.8766,4.873,4.8771,4.8733,4.8717,4.8819,4.8826,4.8874,4.8902,4.8867,4.9024,4.8992,4.8929,4.8828,4.9002,4.9065,4.9091,4.8736,4.8733,4.873,4.8728,0,0,4.876,4.8763,4.8792,4.8805,4.8818,4.887,4.8955,4.9001,4.9036,4.9063,4.9131,4.9215,4.9155,4.9179,4.9144,4.9208,4.9372,4.9137,4.9136,4.9177,4.9542,4.9587,4.9619,4.9334,4.9339,4.9343,4.9539,0,4.8963,4.9106,4.9064,4.9208,4.9269,4.9188,4.9261,4.9277,4.9265,4.9314,4.9301,4.9359,4.9279,4.9292,4.9352,4.934,4.9444,4.9325,4.9395,4.9398,4.939,4.9652,4.9701,4.9885,4.9564,4.9568,4.9571,0,4.9218,4.9252,4.9403,4.9402,4.9426,4.9493,4.953,4.958,4.9595,4.9581,4.9607,4.9559,4.964,4.9541,4.9652,4.9572,4.9598,4.9596,4.9602,4.9605,4.9494,4.9659,4.9944,4.997,4.9611,4.9607,4.9605,0,4.9416,4.95,4.9599,4.9613,4.9617,4.9665,4.9669,4.9679,4.9708,4.9741,4.9759,4.9802,4.9825,4.9859,4.9822,4.9754,4.9938,4.9836,4.9927,4.9928,4.9967,4.9965,5.0258,4.999,4.999,4.9989,4.9989,0,4.9645,4.9739,4.9688,4.9749,4.9851,4.9801,4.9904,4.9899,4.9908,4.9965,4.9899,4.9955,4.9905,4.9956,4.9928,5.0022,5.0034,5.0024,5.0015,5.0028,5.0029,5.0043,5.0028,4.9997,4.9995,4.9994,4.9992,0,4.9882,4.9852,4.9954,4.9948,4.9949,5.0024,5.0019,5.0075,5.0057,5.0131,5.0145,5.0118,5.0174,5.0142,5.02,5.0181,5.0303,5.0278,5.0297,5.0289,5.0381,5.0371,5.069,5.0727,5.0439,5.0442,5.0444,0,5.0029,5.0098,5.0099,5.0133,5.014,5.0196,5.0224,5.0178,5.0211,5.0232,5.0285,5.0335,5.0373,5.0467,5.0452,5.0495,5.0469,5.0577,5.0475,5.0485,5.0466,5.0461,5.0466,5.0597,5.0601,5.0603,5.0606,0,5.0291,5.0271,5.0315,5.0354,5.0389,5.0418,5.0441,5.0472,5.0425,5.0466,5.0521,5.055,5.0608,5.0658,5.0695,5.0698,5.0644,5.0638,5.0661,5.0674,5.068,5.0674,5.035,5.0631,5.0628,5.0626,5.0625,5.0624,5.0484,5.0541,5.055,5.06,5.0612,5.0634,5.0685,5.0673,5.0718,5.0761,5.0731,5.0797,5.0808,5.0851,5.0862,5.0912,5.0868,5.0902,5.091,5.0918,5.0929,5.0675,5.0919,5.0918,5.0917,5.0917,5.0916,0,5.074,5.0741,5.0788,5.082,5.0859,5.0805,5.0826,5.0863,5.092,5.0936,5.0973,5.1036,5.1084,5.1072,5.1115,5.1157,5.1133,5.1169,5.1164,5.1165,5.0967,5.0942,5.1188,5.1188,5.1188,5.1188,5.1187,5.1187,5.0877,5.0969,5.0951,5.1048,5.1048,5.111,5.1127,5.1147,5.1158,5.1231,5.1269,5.1261,5.1265,5.1307,5.1348,5.1343,5.136,5.1405,5.1391,5.1206,5.1179,5.1154,5.1129,5.141,5.1411,5.1584,5.1586,5.1587]},{"header":{"parameterUnit":"m.s-1","parameterCategory":1,"la1":30.2991,"la2":30.254,"lo1":-89.0895,"lo2":-89.0444,"dy":0.0017,"dx":0.0017,"nx":28,"ny":28,"refTime":"2023-08-11T03:00:00:Z","depth":0,"parameterNumber":3,"parameterNumberName":"V-component_of_WINDS"},"data":[0,0,0,0,0,0,0,0,0,0,0,0,0,0,0,0,0,0,0,0,0,0,0,0,0,0,0,0,0,0,0,0,0,0,0,0,0,0,0,0,0,0,0,0,0,0,0,0,0,0,0,0,0,0,0,0,0,0,5.7042,5.7044,0,5.7227,5.7229,5.7231,5.7238,5.7236,5.7234,5.7232,5.7415,5.7422,5.7429,0,0,0,0,0,0,0,0,0,0,0,0,0,5.6686,5.6692,5.7041,5.7044,5.7046,5.7227,5.7229,5.7232,5.7239,5.7236,5.7233,5.7231,5.7413,5.7421,5.7429,0,0,0,0,0,0,0,0,0,0,0,0,0,5.6852,5.6695,5.7041,5.7072,5.7076,5.7226,5.7229,5.7232,5.7239,5.7236,5.7233,5.723,5.741,5.742,5.7431,5.7561,0,0,5.7462,5.7467,0,0,0,0,0,0,0,0,5.6843,5.6866,5.7065,5.707,5.7075,5.7206,5.7171,5.7342,5.724,5.7177,5.7232,5.7228,5.7348,5.7363,5.7405,5.7569,5.7577,5.7463,5.747,5.7474,5.7477,0,0,0,0,0,0,0,5.6831,5.6858,5.7115,5.7068,5.7074,5.7073,5.7093,5.7203,5.7278,5.7182,5.7183,5.7206,5.735,5.7395,5.7409,5.758,5.7463,5.7472,5.7479,5.7483,5.7855,5.7859,0,0,0,0,0,0,5.6815,5.6848,5.7109,5.712,5.6949,5.7082,5.7105,5.7167,5.7277,5.7291,5.7208,5.7205,5.7379,5.7397,5.7416,5.7573,5.7474,5.7484,5.749,5.7852,5.7856,5.786,0,0,0,0,0,0,5.6807,5.6838,5.7101,5.6985,5.7018,5.7092,5.7162,5.7173,5.7218,5.7297,5.731,5.7241,5.7377,5.7401,5.7524,5.7579,5.7488,5.7498,5.7847,5.7853,5.7858,5.7889,0,0,0,0,0,0,5.6797,5.6835,5.6888,5.6986,5.7024,5.7209,5.7166,5.7179,5.7236,5.7234,5.7331,5.7344,5.7376,5.7508,5.7534,5.7592,5.7506,5.7843,5.785,5.7856,5.7883,5.7894,5.7904,0,0,0,0,0,5.6784,5.6888,5.689,5.6922,5.7092,5.7212,5.7234,5.7271,5.7241,5.7292,5.7343,5.7341,5.7569,5.7521,5.755,5.7612,5.7839,5.7848,5.7856,5.7878,5.7892,5.7904,0,0,0,0,0,0,5.6794,5.6902,5.6905,5.7045,5.7119,5.7213,5.728,5.7285,5.7369,5.7363,5.7404,5.7425,5.7546,5.7591,5.7536,5.7741,5.77,5.7715,5.7707,5.7721,5.7732,5.7718,5.7514,0,0,0,0,0,5.6812,5.6904,5.6992,5.7107,5.7144,5.7205,5.726,5.7282,5.736,5.7391,5.745,5.7524,5.7612,5.7669,5.7755,5.789,5.7909,5.7946,5.7956,5.7965,5.7976,5.8047,5.8064,5.7887,5.7887,5.7887,0,0,5.6851,5.6921,5.6976,5.711,5.7171,5.7261,5.7232,5.733,5.7397,5.7405,5.7525,5.757,5.7655,5.7784,5.7843,5.7825,5.8029,5.7975,5.7981,5.7989,5.8057,5.8074,5.8089,5.7893,5.7892,5.7891,0,0,5.6968,5.7032,5.7132,5.7193,5.7286,5.7325,5.7349,5.7442,5.7473,5.7595,5.7601,5.768,5.7832,5.7891,5.7941,5.8077,5.8077,5.8104,5.8159,5.8227,5.8241,5.8254,5.8299,5.8315,5.8115,5.8115,5.8115,0,5.7003,5.7143,5.7183,5.7281,5.7338,5.735,5.745,5.7507,5.7622,5.7659,5.7638,5.7827,5.7885,5.8026,5.8059,5.81,5.8125,5.8093,5.8237,5.8249,5.8262,5.8305,5.8323,5.8118,5.8117,5.8117,5.8117,0,5.7181,5.7277,5.7347,5.7459,5.7524,5.7622,5.7674,5.7734,5.775,5.779,5.7911,5.7981,5.808,5.8115,5.8131,5.8257,5.8243,5.8229,5.8188,5.828,5.8322,5.8339,5.8121,5.812,5.812,5.8119,0,0,5.7309,5.744,5.7465,5.7514,5.7616,5.769,5.7787,5.7885,5.7934,5.8012,5.8093,5.822,5.8207,5.8263,5.8286,5.8346,5.8445,5.8324,5.8326,5.8342,5.8584,5.8593,5.8612,5.8446,5.845,5.8452,5.8576,0,5.7435,5.7611,5.7648,5.7799,5.7886,5.7898,5.7982,5.8052,5.8092,5.8169,5.8213,5.8301,5.8279,5.8312,5.8373,5.842,5.8494,5.8412,5.8518,5.8521,5.8495,5.8635,5.8645,5.8759,5.8593,5.8596,5.8598,0,5.7606,5.7688,5.7848,5.7935,5.7973,5.8049,5.814,5.8215,5.8292,5.8317,5.8379,5.8395,5.8493,5.8448,5.8582,5.8525,5.857,5.86,5.8605,5.8615,5.8564,5.8646,5.8796,5.8812,5.8625,5.8623,5.8621,0,5.768,5.7831,5.7945,5.7987,5.8093,5.8145,5.8191,5.8265,5.8321,5.84,5.8435,5.8524,5.8572,5.8638,5.8676,5.8641,5.8805,5.8765,5.8825,5.8824,5.8859,5.8856,5.9016,5.8891,5.8891,5.8891,5.889,0,5.7815,5.7912,5.798,5.805,5.8157,5.8197,5.8301,5.8346,5.8412,5.8488,5.8504,5.8575,5.8621,5.8698,5.8727,5.8831,5.8853,5.8874,5.888,5.8871,5.8868,5.89,5.8892,5.8895,5.8894,5.8893,5.8892,0,5.7916,5.7966,5.8091,5.818,5.8204,5.8279,5.8354,5.842,5.846,5.8557,5.8581,5.8643,5.8734,5.8778,5.8891,5.891,5.9027,5.903,5.9001,5.9003,5.9061,5.9054,5.9246,5.9271,5.9131,5.9133,5.9134,0,5.7998,5.8072,5.8169,5.8223,5.827,5.8356,5.8412,5.8454,5.8511,5.8604,5.8658,5.875,5.8826,5.8969,5.9022,5.9107,5.911,5.9172,5.9123,5.9111,5.9108,5.9102,5.9108,5.918,5.9181,5.9182,5.9183,0,5.8138,5.8158,5.824,5.8331,5.8398,5.8471,5.8542,5.8584,5.8636,5.8699,5.8793,5.8852,5.8966,5.9056,5.9144,5.9188,5.9193,5.9198,5.9216,5.9207,5.9187,5.9196,5.9023,5.9193,5.9192,5.9191,5.9191,5.919,5.823,5.8295,5.8373,5.8463,5.8521,5.8587,5.8653,5.8701,5.8781,5.8878,5.8897,5.8996,5.9068,5.9188,5.9234,5.931,5.9296,5.9323,5.9329,5.9334,5.9336,5.9176,5.9326,5.9326,5.9326,5.9325,5.9325,0,5.8368,5.8418,5.8501,5.86,5.867,5.8671,5.8749,5.8807,5.8894,5.8962,5.9036,5.9141,5.9228,5.9287,5.9374,5.9422,5.9427,5.9443,5.9439,5.9449,5.9345,5.932,5.9438,5.9438,5.9438,5.9438,5.9438,5.9438,5.8448,5.8558,5.8587,5.8724,5.8774,5.8871,5.8915,5.8975,5.9029,5.9147,5.9219,5.9258,5.9322,5.9413,5.9491,5.9506,5.9536,5.9553,5.9567,5.9468,5.9456,5.9445,5.9421,5.9559,5.9559,5.9664,5.9665,5.9665]}]]